{"data":{"norad_id":51108,"intl_designator":"2022-005E","name":"STARLINK-3362","alt_names":[],"object_type":"PAYLOAD","status":"ACTIVE","operator":null,"country":"US","launch_date":"2022-01-19","launch_site_code":"AFETR","launch_vehicle":null,"mission":null,"orbit_class":"UNKNOWN","rcs_meters":null,"size_class":null,"mass_kg":null,"dimensions":null,"purposes":["comms"],"wikipedia_slug":null,"has_3d_model":false,"image_url":null,"decayed_at":null,"tle_current":{"epoch":"2026-09-20T03:29:20.082912Z","epoch_age_seconds":79116,"freshness":"FRESH","line1":"1 51108U 22005E   26263.14537133  .00000711  00000+0  31305-4 0  9994","line2":"2 51108  53.1599 127.3243 0001207  95.7633 264.3508 15.35395359258353","mean_motion":15.35395359,"eccentricity":0.0001207,"inclination_deg":53.1599,"raan_deg":127.3243,"arg_perigee_deg":95.7633,"mean_anomaly_deg":264.3508,"bstar":3.1305e-5,"rev_number":25835,"period_min":93.786918890902,"perigee_km":458.92108930675,"apogee_km":460.57175436478,"semimajor_km":6837.8834218358,"source":"CELESTRAK","updated_at":"2026-09-20T09:00:39.584519Z"}}}